User: anonymous   Login
Location: Unspecified
(0.0000°N, 0.0000°E)
Time: 05:02:46
(UTC+00:00)
Language:

AMOS 1 - Orbit

View from above orbital plane
View from above orbital plane
View from above satellite
View from above satellite

Ground track
Ground track

The orbit data is extracted from the following two-line orbital elements,

1 23865U 96030B   16241.59001900 -.00000082 +00000-0 +00000-0 0  9991
2 23865 006.5599 056.0742 0012512 117.9227 070.3447 00.97116743073816
Epoch (UTC): 28 August 2016 14:09:37
Eccentricity: 0.0012512
inclination: 6.5599°
perigee height: 36640 km
apogee height: 36748 km
right ascension of ascending node: 56.0742°
argument of perigee: 117.9227°
revolutions per day: 0.97116743
mean anomaly at epoch: 70.3447°
orbit number at epoch: 7381

The dashed part of the orbit path shows where the satellite is in the earth's shadow,  

DLR